Torna al catalogo

YAOGAN-39 05C

AttivoMilitareVLEO
NORAD 58559·PAYLOAD·🇨🇳 China

Lanciato Dec 10, 2023 da Xichang Satellite Launch Center

Loading…

Prossimi Passaggi (prossime 24 ore)

TLE

AggiornatoSource: Space-Track

Epoca: Sep 14, 2026, 09:57 UTC

1 58559U 23194C   26257.41509484  .00004252  00000-0  21372-3 0  9999
2 58559  34.9903 245.0723 0015387 101.2151 259.0292 15.16602029153684

Traccia YAOGAN-39 05C in tempo reale con AllMySat

Download on the App Store